Location: Trani
(41.2830°N, 16.4170°E)
Time: 03:02:35
(UTC+02:00)

ISS - Pass Details

Date: 17 May 2021
Orbit: 417 x 422 km, 51.6° (Epoch: 14 June)

Event Time Altitude Azimuth Distance (km) Brightness Sun altitude
Rises 00:29:04 0° 301° (WNW) 2,368 0.5 -29.2°
Reaches altitude 10° 00:31:56 10° 328° (NNW) 1,505 -0.2 -29.2°
Maximum altitude 00:33:51 14° 2° (N) 1,276 -0.5 -29.3°
Drops below altitude 10° 00:35:45 10° 37° (NE) 1,507 -0.4 -29.3°
Sets 00:38:38 0° 63° (ENE) 2,372 0.4 -29.3°
